Change the Weather History Date:

Wednesday, October 31, 2012

  Actual Average Record
Temperature  
Mean Temperature 66 °F -  
Max Temperature 80 °F - - ()
Min Temperature 51 °F - - ()
Growing Degree Days 16 (Base 50)    
Moisture  
Dew Point 34 °F    
Average Humidity 30    
Maximum Humidity 62    
Minimum Humidity 8    
Precipitation  
Precipitation 0.00 in - - ()
Sea Level Pressure  
Sea Level Pressure 30.00 in    
Wind  
Wind Speed 11 mph ()    
Max Wind Speed 21 mph    
Max Gust Speed 18 mph    
Visibility 11.7 miles    
Events      
T = Trace of Precipitation, MM = Missing Value Source: Averaged Metar Reports

Daily Weather History Graph

Daily Weather History Graph

Search for Another Location

Airport or City:

Trip Planner

Search our weather history database for the weather conditions in past years. The results will help you decide how hot, cold, wet, or windy it might be!

Date:

Astronomy

Oct. 31, 2012 Rise Set
Actual Time 5:29 AM SAST 6:33 PM SAST
Civil Twilight 5:05 AM SAST 6:57 PM SAST
Nautical Twilight 4:36 AM SAST 7:26 PM SAST
Astronomical Twilight 4:07 AM SAST 7:55 PM SAST
Moon 8:06 PM SAST (10/31) 6:21 AM SAST (10/31)
Length of Visible Light 13h 52m
Length of Day
13h 04m
Full, 98% of the Moon is Illuminated
Oct 31
Full
Nov 7
Last Quarter
Nov 14
New
Nov 20
First Quarter
Nov 28
Full

Hourly Weather History & Observations

Time (SAST) Temp. Dew Point Humidity Pressure Visibility Wind Dir Wind Speed Gust Speed Precip Events Conditions
12:00 AM 60.8 °F 32.0 °F 34% 30.01 in - SSE 17.3 mph - N/A   Unknown
1:00 AM 57.2 °F 33.8 °F 41% 30.01 in - SSE 20.7 mph - N/A   Unknown
2:00 AM 57 °F 36 °F 33%  in - SE 16.1 mph - -  
2:00 AM 55.4 °F 35.6 °F 47% 29.98 in - SE 16.1 mph - N/A   Unknown
3:00 AM 53.6 °F 35.6 °F 51% 29.98 in - SSE 11.5 mph - N/A   Unknown
4:00 AM 51.8 °F 37.4 °F 58% 29.98 in - SSE 11.5 mph - N/A   Unknown
5:00 AM 53 °F 39 °F 47%  in 19 mi SE 11.5 mph - -  
5:00 AM 51.8 °F 37.4 °F 58% 30.01 in - SE 11.5 mph - N/A   Clear
6:00 AM 51.8 °F 39.2 °F 62% 30.01 in - SE 11.5 mph - N/A   Clear
7:00 AM 53.6 °F 39.2 °F 58% 30.04 in - SE 11.5 mph - N/A   Clear
8:00 AM 60 °F 40 °F 35%  in 19 mi East 11.5 mph - -  
8:00 AM 59.0 °F 39.2 °F 48% 30.04 in - East 10.4 mph - N/A   Clear
9:00 AM 66.2 °F 37.4 °F 35% 30.04 in - ENE 12.7 mph - N/A   Clear
9:44 AM 69.8 °F 35.6 °F 28% 30.04 in - East 12.7 mph - N/A   Clear
10:00 AM 71.6 °F 33.8 °F 25% 30.04 in - ENE 9.2 mph - N/A   Clear
11:00 AM 74 °F 34 °F 13%  in 19 mi NE 11.5 mph - -  
11:00 AM 73.4 °F 33.8 °F 23% 30.04 in - NE 11.5 mph - N/A   Clear
12:00 PM 75.2 °F 32.0 °F 21% 30.01 in 6.2 mi ENE 10.4 mph - N/A   Partly Cloudy
1:00 PM 77.0 °F 32.0 °F 19% 29.98 in 6.2 mi ENE 10.4 mph - N/A   Partly Cloudy
2:00 PM 79 °F 31 °F 9%  in 19 mi NE 4.6 mph - -   Scattered Clouds
2:00 PM 78.8 °F 32.0 °F 18% 29.98 in 6.2 mi NE 4.6 mph - N/A   Partly Cloudy
3:00 PM 78.8 °F 30.2 °F 17% 29.95 in 6.2 mi North 4.6 mph 18.4 mph N/A   Partly Cloudy
4:00 PM 78.8 °F 32.0 °F 18% 29.92 in 6.2 mi ENE 5.8 mph - N/A   Scattered Clouds
5:00 PM 80 °F 30 °F 8%  in 19 mi ENE 8.1 mph - -   Partly Cloudy
5:00 PM 78.8 °F 30.2 °F 17% 29.92 in 6.2 mi ENE 8.1 mph - N/A   Scattered Clouds
6:00 PM 77.0 °F 30.2 °F 18% 29.95 in 6.2 mi NE 9.2 mph - N/A   Partly Cloudy
7:00 PM 73.4 °F 30.2 °F 20% 29.95 in 6.2 mi NNE 6.9 mph - N/A   Scattered Clouds
8:00 PM 72 °F 32 °F 13%  in 19 mi NE 8.1 mph - -   Scattered Clouds
8:00 PM 71.6 °F 32.0 °F 23% 29.98 in - NE 8.1 mph - N/A   Clear
9:00 PM 68.0 °F 33.8 °F 28% 30.01 in - NE 10.4 mph - N/A   Unknown
10:00 PM 68.0 °F 33.8 °F 28% 30.01 in - ENE 11.5 mph - N/A   Unknown
11:00 PM 68 °F 35 °F 19%  in - NE 10.4 mph - -  
11:00 PM 66.2 °F 33.8 °F 30% 30.01 in - NE 9.2 mph - N/A   Unknown